AZA100 LIRF-OMDB

Flight info

Callsign AZA100
Flight time N/A
Altitude 41000
Route PEPIX L50 UNIXO/N0482F370 DCT TAGEL DCT DIRED DCT MASOT DCT BELIX/N0483F390 DCT SALUN N705 BOPIX N710 TAKRI M720 FYM W613 ALPID DCT MENLI DCT SISIK W976 DATOK L550 KARIK B411 DEESA Y415 LABAD/N0491F410 Y415 LOTOK P559 VUTEB
Aircraft MD11/H-SDE1E2E3FGHIJ2J3J4J5M1RWXY/LB1D1

Departure

Time N/A
Airport Rome–Fiumicino Leonardo da Vinci International Airport (LIRF)

Arrival

Time 2026-04-26 20:15
Airport Dubai International Airport (OMDB)
Time Latitude Longitude Altitude Speed Heading
2026-04-26 18:55 27.83207 45.79028 39720 ft 563 kts 104°
2026-04-26 18:55 27.82382 45.83353 39992 ft 563 kts 105°
2026-04-26 18:56 27.81519 45.87665 40261 ft 562 kts 105°
2026-04-26 18:56 27.80634 45.91968 40488 ft 563 kts 105°
2026-04-26 18:56 27.79739 45.96271 40722 ft 563 kts 105°
2026-04-26 18:56 27.78842 46.00574 40906 ft 563 kts 105°
2026-04-26 18:57 27.77644 46.06333 40953 ft 562 kts 105°
2026-04-26 18:57 27.75271 46.17767 40962 ft 562 kts 105°
2026-04-26 18:58 27.73483 46.26351 40961 ft 561 kts 105°
2026-04-26 18:58 27.71691 46.34925 40963 ft 561 kts 105°
2026-04-26 18:59 27.69907 46.43492 40965 ft 560 kts 105°
2026-04-26 18:59 27.68125 46.52048 40961 ft 560 kts 105°
2026-04-26 19:00 27.66643 46.59142 40962 ft 559 kts 105°
2026-04-26 19:00 27.64856 46.67667 40964 ft 559 kts 105°
2026-04-26 19:01 27.63064 46.76185 40961 ft 558 kts 105°
2026-04-26 19:01 27.61270 46.84684 40963 ft 557 kts 105°
2026-04-26 19:02 27.59474 46.93171 40962 ft 556 kts 106°
2026-04-26 19:02 27.57980 47.00205 40963 ft 555 kts 106°
2026-04-26 19:03 27.55874 47.10093 40961 ft 555 kts 106°
2026-04-26 19:03 27.54058 47.18533 40961 ft 554 kts 106°
2026-04-26 19:04 27.52232 47.26955 40960 ft 553 kts 106°
2026-04-26 19:04 27.50415 47.35371 40964 ft 553 kts 106°
2026-04-26 19:05 27.47691 47.47989 40964 ft 553 kts 106°
2026-04-26 19:06 27.45865 47.56394 40961 ft 552 kts 107°
2026-04-26 19:06 27.43745 47.64684 40961 ft 551 kts 110°
2026-04-26 19:07 27.41394 47.72892 40961 ft 551 kts 111°
2026-04-26 19:07 27.39054 47.81025 40961 ft 550 kts 110°
2026-04-26 19:08 27.36725 47.89225 40961 ft 550 kts 110°
2026-04-26 19:08 27.34403 47.97426 40955 ft 550 kts 110°
2026-04-26 19:09 27.32075 48.05631 40945 ft 549 kts 110°
2026-04-26 19:09 27.29821 48.13825 40943 ft 548 kts 109°
2026-04-26 19:10 27.27658 48.22044 40943 ft 548 kts 109°
2026-04-26 19:10 27.25506 48.30267 40951 ft 548 kts 109°
2026-04-26 19:11 27.23343 48.38473 40945 ft 547 kts 109°
2026-04-26 19:11 27.21171 48.46673 40946 ft 548 kts 109°
2026-04-26 19:12 27.18994 48.54867 40944 ft 547 kts 109°
2026-04-26 19:12 27.16814 48.63051 40943 ft 547 kts 109°
2026-04-26 19:13 27.14633 48.71223 40944 ft 546 kts 109°
2026-04-26 19:13 27.12447 48.79387 40942 ft 546 kts 109°
2026-04-26 19:14 27.10286 48.87550 40941 ft 546 kts 106°
2026-04-26 19:14 27.09234 48.95995 40944 ft 548 kts 93°
2026-04-26 19:15 27.08986 49.04532 40943 ft 547 kts 91°
2026-04-26 19:15 27.08749 49.13073 40943 ft 547 kts 92°
2026-04-26 19:16 27.08396 49.21540 40943 ft 547 kts 93°
2026-04-26 19:16 27.07985 49.30051 40943 ft 546 kts 94°
2026-04-26 19:17 27.07551 49.38562 40944 ft 546 kts 94°
2026-04-26 19:17 27.07134 49.47066 40943 ft 546 kts 93°
2026-04-26 19:18 27.06725 49.55566 40943 ft 545 kts 93°
2026-04-26 19:18 27.06311 49.64062 40943 ft 545 kts 93°
2026-04-26 19:19 27.05892 49.72558 40943 ft 545 kts 94°
2026-04-26 19:19 27.05466 49.81045 40943 ft 545 kts 94°
2026-04-26 19:20 27.05036 49.89524 40935 ft 544 kts 94°
2026-04-26 19:20 27.04648 49.98003 40934 ft 544 kts 91°
2026-04-26 19:21 27.04619 50.06486 40934 ft 542 kts 89°
2026-04-26 19:21 27.04742 50.14934 40934 ft 541 kts 88°
2026-04-26 19:22 27.04852 50.23379 40943 ft 541 kts 89°
2026-04-26 19:22 27.04932 50.31764 40943 ft 541 kts 89°
2026-04-26 19:23 27.04284 50.40146 40943 ft 539 kts 105°
2026-04-26 19:23 27.01626 50.47952 40936 ft 535 kts 118°
2026-04-26 19:24 26.98361 50.55458 40935 ft 536 kts 118°
2026-04-26 19:24 26.93790 50.66890 40939 ft 536 kts 116°
2026-04-26 19:25 26.91366 50.73279 40943 ft 536 kts 115°
2026-04-26 19:25 26.87956 50.82270 40943 ft 536 kts 115°
2026-04-26 19:26 26.85019 50.89950 40954 ft 536 kts 116°
2026-04-26 19:26 26.82082 50.97625 40952 ft 536 kts 115°
2026-04-26 19:27 26.79170 51.05301 40952 ft 536 kts 115°
2026-04-26 19:27 26.76352 51.13027 40955 ft 537 kts 112°
2026-04-26 19:28 26.73820 51.20884 40952 ft 537 kts 111°
2026-04-26 19:28 26.71354 51.28763 40953 ft 537 kts 111°
2026-04-26 19:29 26.68862 51.36628 40954 ft 536 kts 111°
2026-04-26 19:29 26.66349 51.44477 40952 ft 536 kts 111°
2026-04-26 19:30 26.63826 51.52309 40952 ft 536 kts 111°
2026-04-26 19:30 26.61728 51.58820 40944 ft 536 kts 111°
2026-04-26 19:31 26.58796 51.67921 40943 ft 535 kts 111°
2026-04-26 19:31 26.56268 51.75737 40943 ft 535 kts 111°
2026-04-26 19:32 26.53736 51.83551 40943 ft 535 kts 111°
2026-04-26 19:32 26.51185 51.91348 40944 ft 534 kts 111°
2026-04-26 19:33 26.48602 51.99124 40952 ft 534 kts 111°
2026-04-26 19:33 26.46014 52.06887 40944 ft 533 kts 111°
2026-04-26 19:34 26.43425 52.14644 40943 ft 533 kts 111°
2026-04-26 19:34 26.40829 52.22395 40943 ft 533 kts 111°
2026-04-26 19:35 26.38232 52.30144 40943 ft 533 kts 111°
2026-04-26 19:35 26.35619 52.37878 40943 ft 533 kts 112°
2026-04-26 19:36 26.33748 52.42996 40943 ft 533 kts 114°
2026-04-26 19:36 26.29850 52.53095 40945 ft 533 kts 115°
2026-04-26 19:37 26.26914 52.60678 40938 ft 533 kts 115°
2026-04-26 19:37 26.23994 52.68261 40943 ft 533 kts 114°
2026-04-26 19:38 26.21083 52.75853 40943 ft 533 kts 114°
2026-04-26 19:38 26.18180 52.83438 40943 ft 533 kts 114°
2026-04-26 19:39 26.15292 52.90972 40945 ft 533 kts 114°
2026-04-26 19:39 26.12391 52.98526 40161 ft 529 kts 114°
2026-04-26 19:40 26.10942 53.02298 39007 ft 531 kts 115°
2026-04-26 19:40 26.09508 53.06096 37812 ft 534 kts 114°
2026-04-26 19:40 26.08090 53.09915 36612 ft 535 kts 114°
2026-04-26 19:40 26.06683 53.13743 35344 ft 535 kts 114°
2026-04-26 19:41 26.05274 53.17590 33851 ft 540 kts 114°
2026-04-26 19:41 26.03847 53.21480 32219 ft 546 kts 114°
2026-04-26 19:41 26.02413 53.25385 30737 ft 545 kts 114°
2026-04-26 19:41 26.01929 53.26705 30222 ft 544 kts 114°
2026-04-26 19:42 25.99584 53.33084 28421 ft 527 kts 114°
2026-04-26 19:42 25.98208 53.36816 27410 ft 516 kts 114°
2026-04-26 19:42 25.96857 53.40474 26372 ft 507 kts 115°
2026-04-26 19:42 25.95531 53.44058 25384 ft 497 kts 115°
2026-04-26 19:43 25.94230 53.47573 24347 ft 488 kts 115°
2026-04-26 19:43 25.92976 53.51036 23377 ft 478 kts 114°
2026-04-26 19:43 25.91779 53.54440 22375 ft 469 kts 114°
2026-04-26 19:43 25.90621 53.57798 21377 ft 461 kts 114°
2026-04-26 19:44 25.89488 53.61094 20398 ft 453 kts 114°
2026-04-26 19:44 25.88377 53.64332 19439 ft 445 kts 114°
2026-04-26 19:44 25.87284 53.67516 18493 ft 438 kts 114°
2026-04-26 19:44 25.86207 53.70645 17549 ft 430 kts 114°
2026-04-26 19:45 25.85143 53.73720 16586 ft 424 kts 114°
2026-04-26 19:45 25.84090 53.76750 15647 ft 418 kts 113°
2026-04-26 19:45 25.83051 53.79739 14723 ft 412 kts 112°
2026-04-26 19:45 25.82027 53.82682 13784 ft 407 kts 112°
2026-04-26 19:46 25.81022 53.85582 13121 ft 397 kts 111°
2026-04-26 19:46 25.80019 53.88467 12740 ft 399 kts 111°
2026-04-26 19:46 25.79039 53.91348 12363 ft 394 kts 108°
2026-04-26 19:46 25.78387 53.94211 12038 ft 371 kts 99°
2026-04-26 19:47 25.77952 53.96946 11962 ft 348 kts 98°
2026-04-26 19:47 25.77826 53.97796 11950 ft 341 kts 98°
2026-04-26 19:47 25.77199 54.01925 11924 ft 307 kts 98°
2026-04-26 19:47 25.76821 54.04217 11919 ft 299 kts 99°
2026-04-26 19:48 25.76564 54.05716 11921 ft 298 kts 99°
2026-04-26 19:48 25.76169 54.07966 11925 ft 298 kts 99°
2026-04-26 19:48 25.75765 54.10216 11923 ft 297 kts 99°
2026-04-26 19:48 25.75358 54.12469 11926 ft 298 kts 100°
2026-04-26 19:49 25.74953 54.14707 11917 ft 293 kts 101°
2026-04-26 19:49 25.74546 54.16921 11913 ft 293 kts 102°
2026-04-26 19:49 25.74135 54.19133 11918 ft 293 kts 101°
2026-04-26 19:49 25.73723 54.21343 11919 ft 293 kts 102°
2026-04-26 19:50 25.73310 54.23557 11920 ft 293 kts 102°
2026-04-26 19:50 25.72898 54.25768 11911 ft 293 kts 102°
2026-04-26 19:50 25.72483 54.27980 11904 ft 293 kts 102°
2026-04-26 19:50 25.72070 54.30189 11908 ft 293 kts 102°
2026-04-26 19:51 25.71658 54.32401 11910 ft 293 kts 102°
2026-04-26 19:51 25.71243 54.34612 11886 ft 294 kts 102°
2026-04-26 19:51 25.70828 54.36829 11878 ft 294 kts 102°
2026-04-26 19:51 25.70416 54.39015 11879 ft 294 kts 102°
2026-04-26 19:52 25.69999 54.41235 11873 ft 294 kts 102°
2026-04-26 19:52 25.69581 54.43451 11877 ft 294 kts 102°
2026-04-26 19:52 25.69165 54.45668 11878 ft 294 kts 102°
2026-04-26 19:52 25.68749 54.47884 11878 ft 294 kts 102°
2026-04-26 19:53 25.68330 54.50104 11874 ft 293 kts 102°
2026-04-26 19:53 25.67909 54.52318 11870 ft 293 kts 102°
2026-04-26 19:53 25.67491 54.54534 11869 ft 294 kts 102°
2026-04-26 19:53 25.67072 54.56752 11870 ft 294 kts 102°
2026-04-26 19:54 25.66652 54.58968 11868 ft 294 kts 102°
2026-04-26 19:54 25.66233 54.61191 11870 ft 295 kts 102°
2026-04-26 19:54 25.65812 54.63414 11868 ft 295 kts 102°
2026-04-26 19:54 25.65393 54.65635 11868 ft 294 kts 102°
2026-04-26 19:55 25.64971 54.67855 11868 ft 295 kts 102°
2026-04-26 19:55 25.64546 54.70076 11869 ft 295 kts 102°
2026-04-26 19:55 25.64123 54.72297 11868 ft 295 kts 102°
2026-04-26 19:55 25.63698 54.74528 11870 ft 296 kts 102°
2026-04-26 19:56 25.63274 54.76753 11869 ft 296 kts 102°
2026-04-26 19:56 25.62847 54.78986 11869 ft 296 kts 102°
2026-04-26 19:56 25.62417 54.81215 11868 ft 296 kts 102°
2026-04-26 19:56 25.61987 54.83433 11752 ft 293 kts 102°
2026-04-26 19:57 25.61476 54.85627 11240 ft 294 kts 109°
2026-04-26 19:57 25.60756 54.87744 10803 ft 294 kts 112°
2026-04-26 19:57 25.59969 54.89828 10369 ft 293 kts 113°
2026-04-26 19:57 25.59169 54.91899 9924 ft 293 kts 113°
2026-04-26 19:58 25.58366 54.93964 9513 ft 291 kts 113°
2026-04-26 19:58 25.57567 54.96019 9115 ft 290 kts 112°
2026-04-26 19:58 25.56770 54.98073 8734 ft 291 kts 112°
2026-04-26 19:58 25.55990 55.00094 8366 ft 288 kts 112°
2026-04-26 19:59 25.55177 55.02153 8006 ft 287 kts 115°
2026-04-26 19:59 25.54276 55.04073 7886 ft 284 kts 118°
2026-04-26 19:59 25.53311 55.05989 7872 ft 285 kts 119°
2026-04-26 19:59 25.52335 55.07902 7869 ft 285 kts 120°
2026-04-26 20:00 25.51355 55.09814 7869 ft 285 kts 120°
2026-04-26 20:00 25.50373 55.11723 7868 ft 285 kts 120°
2026-04-26 20:00 25.49395 55.13637 7862 ft 286 kts 120°
2026-04-26 20:00 25.48415 55.15549 7860 ft 286 kts 120°
2026-04-26 20:01 25.47432 55.17459 7860 ft 286 kts 120°
2026-04-26 20:01 25.46393 55.19328 7867 ft 285 kts 127°
2026-04-26 20:01 25.45171 55.21025 7865 ft 276 kts 131°
2026-04-26 20:01 25.43944 55.22580 7863 ft 263 kts 133°
2026-04-26 20:02 25.42730 55.24086 7867 ft 262 kts 133°
2026-04-26 20:02 25.41515 55.25584 7869 ft 262 kts 133°
2026-04-26 20:02 25.40302 55.27083 7861 ft 261 kts 133°
2026-04-26 20:02 25.39499 55.28076 7861 ft 261 kts 133°
2026-04-26 20:03 25.37882 55.30079 7861 ft 261 kts 133°
2026-04-26 20:03 25.36681 55.31575 7587 ft 261 kts 133°
2026-04-26 20:03 25.35531 55.33117 7252 ft 259 kts 126°
2026-04-26 20:03 25.34535 55.34778 6898 ft 260 kts 122°
2026-04-26 20:04 25.33580 55.36474 6567 ft 259 kts 121°
2026-04-26 20:04 25.32636 55.38174 6258 ft 259 kts 121°
2026-04-26 20:04 25.31693 55.39869 5931 ft 259 kts 121°
2026-04-26 20:04 25.30756 55.41557 5627 ft 257 kts 121°
2026-04-26 20:05 25.29828 55.43238 5315 ft 256 kts 121°
2026-04-26 20:05 25.28903 55.44909 5032 ft 254 kts 121°
2026-04-26 20:05 25.27985 55.46569 4754 ft 252 kts 121°
2026-04-26 20:05 25.27071 55.48217 4455 ft 251 kts 122°
2026-04-26 20:06 25.26161 55.49852 4172 ft 249 kts 122°
2026-04-26 20:06 25.25254 55.51481 3885 ft 248 kts 122°
2026-04-26 20:06 25.24352 55.53108 3618 ft 248 kts 122°
2026-04-26 20:06 25.23454 55.54718 3359 ft 246 kts 122°
2026-04-26 20:07 25.22557 55.56324 3091 ft 244 kts 122°
2026-04-26 20:07 25.21681 55.57894 2895 ft 242 kts 123°
2026-04-26 20:07 25.20798 55.59468 2862 ft 241 kts 122°
2026-04-26 20:07 25.19922 55.61044 2858 ft 241 kts 122°
2026-04-26 20:08 25.18853 55.62464 2854 ft 236 kts 146°
2026-04-26 20:08 25.17452 55.63082 2847 ft 208 kts 179°
2026-04-26 20:08 25.16138 55.62747 2947 ft 187 kts 218°
2026-04-26 20:08 25.15364 55.61680 3004 ft 177 kts 255°
2026-04-26 20:09 25.15358 55.60361 3036 ft 172 kts 284°
2026-04-26 20:09 25.15683 55.59095 3038 ft 173 kts 287°
2026-04-26 20:09 25.16029 55.57797 3020 ft 174 kts 287°
2026-04-26 20:09 25.16365 55.56514 3022 ft 176 kts 287°
2026-04-26 20:10 25.16699 55.55245 3008 ft 175 kts 287°
2026-04-26 20:10 25.17038 55.53956 3009 ft 174 kts 287°
2026-04-26 20:10 25.17438 55.52696 2908 ft 175 kts 292°
2026-04-26 20:10 25.17851 55.51538 2586 ft 151 kts 291°
2026-04-26 20:11 25.18265 55.50503 2315 ft 145 kts 294°
2026-04-26 20:11 25.18751 55.49518 2073 ft 147 kts 299°
2026-04-26 20:11 25.19268 55.48538 1883 ft 148 kts 298°
2026-04-26 20:12 25.20153 55.46487 1519 ft 149 kts 296°
2026-04-26 20:12 25.20675 55.45492 1271 ft 150 kts 300°
2026-04-26 20:12 25.21226 55.44511 1088 ft 151 kts 300°
2026-04-26 20:12 25.21779 55.43536 893 ft 148 kts 300°
2026-04-26 20:13 25.22298 55.42564 725 ft 146 kts 300°
2026-04-26 20:13 25.22819 55.41603 517 ft 144 kts 300°
2026-04-26 20:13 25.23340 55.40655 362 ft 145 kts 298°
2026-04-26 20:13 25.23866 55.39709 267 ft 144 kts 301°
2026-04-26 20:14 25.24393 55.38761 141 ft 146 kts 300°
2026-04-26 20:14 25.24923 55.37804 46 ft 143 kts 300°
2026-04-26 20:14 25.25377 55.36988 30 ft 106 kts 301°
2026-04-26 20:14 25.25701 55.36403 30 ft 73 kts 302°
2026-04-26 20:15 25.25910 55.36028 28 ft 36 kts 299°
2026-04-26 20:15 25.25958 55.35814 30 ft 18 kts 273°
2026-04-26 20:15 25.25964 55.35684 30 ft 16 kts 273°
2026-04-26 20:15 25.25982 55.35582 30 ft 6 kts 285°
2026-04-26 20:16 25.25993 55.35542 28 ft 5 kts 287°
2026-04-26 20:16 25.26003 55.35505 28 ft 5 kts 285°
2026-04-26 20:16 25.26005 55.35453 30 ft 8 kts 264°
2026-04-26 20:16 25.25963 55.35356 30 ft 16 kts 227°
2026-04-26 20:17 25.25877 55.35287 30 ft 15 kts 213°
2026-04-26 20:17 25.25793 55.35230 28 ft 13 kts 210°
2026-04-26 20:17 25.25718 55.35181 30 ft 12 kts 211°
2026-04-26 20:17 25.25672 55.35160 30 ft 9 kts 183°
2026-04-26 20:18 25.25616 55.35185 30 ft 5 kts 166°
2026-04-26 20:18 25.25594 55.35184 30 ft 5 kts 191°
2026-04-26 20:18 25.25565 55.35165 30 ft 4 kts 212°
2026-04-26 20:18 25.25530 55.35142 30 ft 4 kts 211°
2026-04-26 20:19 25.25526 55.35140 30 ft 0 kts 211°